Weather in Annenskiy Most

Russia / Vologda Oblast     60°44′06″N   37°06′57″E
temp.,
°C
wind,
m/s
gust,
m/s
humid.,
%
clouds,
%
prec.,
mm/h
press.,
hPa
HPBL,
m
30 june, thu
thu3000:00+10nnw22735 0.0 102227
03:00+10nw2273100 0.0 102228
06:00+14nnw276432 0.0 1021205
09:00+20n354349 0.0 1020730
12:00+24nnw4639100 0.0 10201482
15:00+24nnw474297 0.0 10191579
18:00+24nnw464720 0.0 10191319
21:00+17n22723 0.0 101927
1 july, fri
fri100:00+13ese24644 0.0 102164
03:00+11se226615 0.0 102214
06:00+14se125953 0.0 1023102
09:00+20sse114096 0.0 1023510
12:00+25ne12285 0.0 10221260
15:00+27nne13236 0.0 10211804
18:00+26n122937 0.0 10201644
21:00+19nnw11665 0.0 102111
2 july, sat
sat200:00+16w116665 0.0 102111
03:00+15w11675 0.0 102011
06:00+19nw13640 0.0 1020107
09:00+24nnw24510 0.1 1019627
12:00+28nnw36415 0.0 10181730
15:00+29n46375 0.0 10182095
18:00+27nnw354357 0.0 10171374
21:00+20nnw2274100 0.0 101837
3 july, sun
sun300:00+17ne1171100 0.0 101811
03:00+15e2266100 0.0 101825
06:00+17ese116483 0.0 101876
09:00+24e11435 0.0 1018574
12:00+28ene12346 0.0 10171407
15:00+29ne1232100 0.0 10161935
18:00+28ene1236100 0.0 10161920
21:00+21se236388 0.0 101663
4 july, mon
mon400:00+18s2265100 0.0 101626
03:00+17s2266100 0.0 101636
06:00+19s2564100 0.0 1016145
09:00+25ssw244994 0.0 1016508
12:00+29ssw3440100 0.0 10151622
15:00+28wsw4547100 0.1 10141414
18:00+18nne4795100 9.6 1015174
21:00+19s2394100 11.3 101448